When you browse on this site, cookies collect data to enhance your experience and personalize the content and advertising you see.
Visit our Privacy Policy to learn more. By continuing to use the site, you agree to this use of cookies and data.
  • Em Portugal
  • Lista de países
  • Para 7 dias
  • Temperatura da água
  • Mapas de satélite
  • Mapa do tempo
  • Widgets de tempo
  • user-avatar
    Iniciar Sessão

    Previsão horária em Volova Gora

    Hoje, 26 Abril, Sexta-feira

    Tempo Temperatura Precipitação Vento Pressão Humidade
    00:00 +13°C° 0 mm 2 m/s 751 mmHg 56%
    01:00 +12°C° 0 mm 2 m/s 750 mmHg 57%
    02:00 +10°C° 0 mm 1 m/s 750 mmHg 61%
    03:00 +10°C° 0 mm 1 m/s 750 mmHg 63%
    04:00 +10°C° 0 mm 1 m/s 750 mmHg 64%
    05:00 +9°C° 0 mm 2 m/s 750 mmHg 66%
    06:00 +12°C° 0 mm 2 m/s 750 mmHg 62%
    07:00 +14°C° 0 mm 2 m/s 750 mmHg 58%
    08:00 +16°C° 0 mm 2 m/s 750 mmHg 53%
    09:00 +18°C° 0 mm 3 m/s 749 mmHg 48%
    10:00 +19°C° 0 mm 3 m/s 749 mmHg 44%
    11:00 +21°C° 0 mm 3 m/s 749 mmHg 39%
    12:00 +22°C° 0 mm 3 m/s 749 mmHg 38%
    13:00 +22°C° 0 mm 3 m/s 749 mmHg 38%
    14:00 +24°C° 0 mm 3 m/s 749 mmHg 37%
    15:00 +24°C° 0 mm 3 m/s 748 mmHg 38%
    16:00 +22°C° 0 mm 3 m/s 748 mmHg 39%
    17:00 +23°C° 0 mm 2 m/s 747 mmHg 41%
    18:00 +20°C° 0 mm 2 m/s 747 mmHg 48%
    19:00 +18°C° 0 mm 2 m/s 747 mmHg 56%
    20:00 +16°C° 0 mm 2 m/s 747 mmHg 64%
    21:00 +16°C° 0 mm 2 m/s 747 mmHg 67%
    22:00 +15°C° 0 mm 2 m/s 746 mmHg 69%
    23:00 +14°C° 0 mm 2 m/s 746 mmHg 72%

    Amanhã, 27 Abril, Sábado

    Tempo Temperatura Precipitação Vento Pressão Humidade
    00:00 +14°C° 0 mm 2 m/s 746 mmHg 74%
    01:00 +13°C° 0 mm 2 m/s 746 mmHg 75%
    02:00 +13°C° 0 mm 2 m/s 745 mmHg 77%
    03:00 +12°C° 0 mm 2 m/s 745 mmHg 78%
    04:00 +12°C° 0 mm 2 m/s 745 mmHg 79%
    05:00 +10°C° 0 mm 2 m/s 744 mmHg 80%
    06:00 +13°C° 0 mm 2 m/s 744 mmHg 75%
    07:00 +15°C° 0 mm 2 m/s 744 mmHg 69%
    08:00 +17°C° 0 mm 2 m/s 744 mmHg 64%
    09:00 +18°C° 0 mm 2 m/s 744 mmHg 60%
    10:00 +20°C° 0 mm 2 m/s 743 mmHg 56%
    11:00 +22°C° 0 mm 3 m/s 743 mmHg 52%
    12:00 +24°C° 0.1 mm 2 m/s 743 mmHg 49%
    13:00 +25°C° 0.1 mm 2 m/s 742 mmHg 47%
    14:00 +26°C° 0.1 mm 2 m/s 742 mmHg 45%
    15:00 +25°C° 0.5 mm 2 m/s 742 mmHg 48%
    16:00 +24°C° 0.5 mm 2 m/s 741 mmHg 52%
    17:00 +23°C° 0.5 mm 2 m/s 741 mmHg 56%
    18:00 +21°C° 0.1 mm 2 m/s 741 mmHg 64%
    19:00 +19°C° 0.1 mm 2 m/s 741 mmHg 71%
    20:00 +17°C° 0.1 mm 2 m/s 741 mmHg 78%
    21:00 +16°C° 0 mm 1 m/s 741 mmHg 81%
    22:00 +16°C° 0 mm 1 m/s 741 mmHg 84%
    23:00 +15°C° 0 mm 1 m/s 741 mmHg 87%

    Depois de amanhã, 28 Abril, Domingo

    Tempo Temperatura Precipitação Vento Pressão Humidade
    00:00 +14°C° 0 mm 2 m/s 742 mmHg 89%
    01:00 +14°C° 0 mm 2 m/s 742 mmHg 90%
    02:00 +13°C° 0 mm 2 m/s 742 mmHg 91%
    03:00 +13°C° 0 mm 2 m/s 742 mmHg 90%
    04:00 +13°C° 0 mm 2 m/s 742 mmHg 89%
    05:00 +12°C° 0 mm 2 m/s 742 mmHg 88%
    06:00 +14°C° 0 mm 2 m/s 742 mmHg 81%
    07:00 +14°C° 0 mm 3 m/s 743 mmHg 73%
    08:00 +17°C° 0 mm 3 m/s 743 mmHg 65%
    09:00 +18°C° 0 mm 4 m/s 744 mmHg 61%
    10:00 +19°C° 0 mm 5 m/s 744 mmHg 58%
    11:00 +20°C° 0 mm 5 m/s 744 mmHg 54%
    12:00 +20°C° 0 mm 5 m/s 745 mmHg 53%
    13:00 +20°C° 0 mm 5 m/s 745 mmHg 52%
    14:00 +21°C° 0 mm 6 m/s 745 mmHg 51%
    15:00 +20°C° 0 mm 5 m/s 745 mmHg 52%
    16:00 +19°C° 0 mm 5 m/s 746 mmHg 52%
    17:00 +17°C° 0 mm 5 m/s 746 mmHg 52%
    18:00 +16°C° 0 mm 5 m/s 746 mmHg 53%
    19:00 +14°C° 0 mm 5 m/s 747 mmHg 53%
    20:00 +12°C° 0 mm 4 m/s 748 mmHg 53%
    21:00 +11°C° 0 mm 4 m/s 748 mmHg 52%
    22:00 +10°C° 0 mm 4 m/s 749 mmHg 51%
    23:00 +8°C° 0 mm 4 m/s 749 mmHg 49%

    29 Abril, Segunda-feira

    Tempo Temperatura Precipitação Vento Pressão Humidade
    00:00 +7°C° 0 mm 4 m/s 749 mmHg 51%
    01:00 +6°C° 0 mm 4 m/s 750 mmHg 52%
    02:00 +5°C° 0 mm 4 m/s 750 mmHg 53%
    03:00 +4°C° 0 mm 4 m/s 750 mmHg 55%
    04:00 +4°C° 0 mm 4 m/s 750 mmHg 57%
    05:00 +3°C° 0 mm 4 m/s 751 mmHg 60%
    06:00 +4°C° 0 mm 4 m/s 751 mmHg 57%
    07:00 +6°C° 0 mm 4 m/s 751 mmHg 54%
    08:00 +7°C° 0 mm 5 m/s 751 mmHg 51%
    09:00 +8°C° 0 mm 5 m/s 751 mmHg 47%
    10:00 +9°C° 0 mm 5 m/s 751 mmHg 43%
    11:00 +12°C° 0 mm 5 m/s 751 mmHg 39%
    12:00 +12°C° 0 mm 5 m/s 751 mmHg 39%
    13:00 +13°C° 0 mm 5 m/s 751 mmHg 38%
    14:00 +13°C° 0 mm 5 m/s 750 mmHg 38%
    15:00 +13°C° 0 mm 4 m/s 750 mmHg 38%
    16:00 +13°C° 0 mm 4 m/s 750 mmHg 39%
    17:00 +13°C° 0 mm 4 m/s 750 mmHg 40%
    18:00 +11°C° 0 mm 3 m/s 750 mmHg 45%
    19:00 +9°C° 0 mm 3 m/s 750 mmHg 51%
    20:00 +8°C° 0 mm 2 m/s 750 mmHg 56%
    21:00 +7°C° 0 mm 2 m/s 750 mmHg 57%
    22:00 +6°C° 0 mm 2 m/s 750 mmHg 59%
    23:00 +5°C° 0 mm 2 m/s 750 mmHg 60%

    30 Abril, Terça-feira

    Tempo Temperatura Precipitação Vento Pressão Humidade
    00:00 +5°C° 0 mm 2 m/s 750 mmHg 61%
    01:00 +4°C° 0 mm 2 m/s 750 mmHg 62%
    02:00 +4°C° 0 mm 2 m/s 750 mmHg 63%
    03:00 +3°C° 0 mm 2 m/s 750 mmHg 65%
    04:00 +3°C° 0 mm 2 m/s 750 mmHg 66%
    05:00 +3°C° 0 mm 2 m/s 749 mmHg 68%
    06:00 +5°C° 0 mm 2 m/s 749 mmHg 61%
    07:00 +7°C° 0 mm 2 m/s 749 mmHg 55%
    08:00 +9°C° 0 mm 2 m/s 749 mmHg 48%
    09:00 +10°C° 0 mm 3 m/s 749 mmHg 44%
    10:00 +11°C° 0 mm 3 m/s 749 mmHg 39%
    11:00 +13°C° 0 mm 3 m/s 749 mmHg 34%
    12:00 +13°C° 0 mm 3 m/s 748 mmHg 33%
    13:00 +14°C° 0 mm 3 m/s 748 mmHg 33%
    14:00 +14°C° 0 mm 3 m/s 747 mmHg 32%
    15:00 +14°C° 0 mm 3 m/s 747 mmHg 32%
    16:00 +15°C° 0 mm 2 m/s 747 mmHg 33%
    17:00 +15°C° 0 mm 2 m/s 746 mmHg 34%
    18:00 +13°C° 0 mm 2 m/s 746 mmHg 39%
    19:00 +12°C° 0 mm 1 m/s 746 mmHg 45%
    20:00 +10°C° 0 mm 1 m/s 746 mmHg 50%
    21:00 +9°C° 0 mm 0 m/s 746 mmHg 51%
    22:00 +8°C° 0 mm 0 m/s 746 mmHg 52%
    23:00 +8°C° 0 mm 0 m/s 746 mmHg 53%

    1 Maio, Quarta-feira

    Tempo Temperatura Precipitação Vento Pressão Humidade
    00:00 +7°C° 0 mm 0 m/s 746 mmHg 56%
    01:00 +7°C° 0 mm 1 m/s 746 mmHg 59%
    02:00 +6°C° 0 mm 1 m/s 745 mmHg 61%
    03:00 +6°C° 0 mm 1 m/s 745 mmHg 62%
    04:00 +6°C° 0 mm 1 m/s 745 mmHg 62%
    05:00 +6°C° 0 mm 1 m/s 745 mmHg 62%
    06:00 +8°C° 0 mm 1 m/s 745 mmHg 57%
    07:00 +8°C° 0 mm 2 m/s 745 mmHg 53%
    08:00 +10°C° 0 mm 2 m/s 745 mmHg 48%
    09:00 +13°C° 0 mm 1 m/s 745 mmHg 43%
    10:00 +15°C° 0 mm 1 m/s 745 mmHg 38%
    11:00 +16°C° 0 mm 1 m/s 744 mmHg 32%
    12:00 +16°C° 0 mm 1 m/s 744 mmHg 33%
    13:00 +15°C° 0 mm 0 m/s 744 mmHg 33%
    14:00 +15°C° 0 mm 0 m/s 743 mmHg 33%
    15:00 +14°C° 0 mm 0 m/s 743 mmHg 34%
    16:00 +14°C° 0 mm 0 m/s 743 mmHg 35%
    17:00 +14°C° 0 mm 0 m/s 742 mmHg 36%
    18:00 +12°C° 0 mm 0 m/s 742 mmHg 40%
    19:00 +11°C° 0 mm 0 m/s 742 mmHg 43%
    20:00 +10°C° 0 mm 0 m/s 742 mmHg 47%
    21:00 +9°C° 0 mm 0 m/s 741 mmHg 48%
    22:00 +9°C° 0 mm 0 m/s 741 mmHg 50%
    23:00 +8°C° 0 mm 0 m/s 741 mmHg 51%
    Mostrar mais